Погода Батамай

Погода Батамай : погода сейчас, прогноз погоды и архив. Всё, что Вы хотите узнать о погоде Батамай!

Поиск расширенной информации на нашем сайте:

Другие новости

Новости СМИ2

Главная страница сайта

Новости сайта

03.07.2017

Напоминаем, что на нашем специализированном сайте Метеоцентр.Азия вы можете получить высокодетализированные автоматические прогнозы погоды по пунктам России, СНГ и мира в авиационном формате (включающие направление и скорость ветра, видимость, явления погоды, количество и форму облачности, нижнюю и верхнюю границу облачности).


Погода Батамай - сегодня

Время (UTC), дата Ветер
(°,м/с) 
Видим.   Явления Облачность Т
(°С)
Тd
(°С)
f(%) Тe
(°С)
Pmin
(гПа)
dP
(гПа)
Po
(мм)
O2
(г/м3)
Тmin Tmax R s Состояние
почвы
18 15.08.17 040 (СВ) 2000 м  мгла  3/0 верхняя 
[Ci fib]
+18.7 +13.6 72 +25  1011.6  752  281           
21 15.08.17 050 (СВ) 2000 м  мгла  10/3 600 м кучево-дожд., средняя, верхняя 
[Cb cap|Ac trans|Cs]
+18.9 +13.3 70 +26  1011.1  -0.5  751  281           
00 16.08.17 080 (В) 4000 м  мгла{ливн. осадки}  10/10 600 м кучево-дожд. 
[Cb cap]
+18.3 +14.7 80 +28  1012.1  752  281  +18.3    0.4    влажная 
03 16.08.17 140 (ЮВ) 4000 м  мгла{ливн. осадки}  10/6 600 м кучево-дожд., средняя 
[Cb cap|Ac As]
+20.1 +16.5 80 +31  1012.4  0.3  752  279           
06 16.08.17 260 (З) 4000 м  мгла{ливн. осадки}  10/10 600 м кучево-дожд. 
[Cb cap]
+19.5 +17.7 89 +34  1012.8  0.4  753  279           
09 16.08.17 260 (З) 20000 м  дым  10/10 600 м кучево-дожд. 
[Cb cap]
+16.6 +15.2 91 +26  1014.3  1.3  754  283           
12 16.08.17 260 (З) 20000 м  дым  10/10 600 м кучево-дожд. 
[Cb cap]
+14.9 +11.8 82 +18  1014.7  0.3  754  286    +20.4  0.3     
15 16.08.17 260 (З) 20000 м    5/3 600 м кучево-дожд., верхняя 
[Cb cap|Ci fib]
+12.9 +9.8 81 +13  1015.1  0.4  754  288           
18 16.08.17 280 (З) 20000 м    6/3 600 м кучево-дожд., средняя, верхняя 
[Cb cap|Ac trans|Ci fib]
+11.8 +9 83 +12  1014.8  -0.4  754  290           
21 16.08.17 270 (З) 20000 м    10/3 600 м кучево-дожд., средняя, верхняя 
[Cb cap|Ac trans|Ci fib]
+12.1 +8.7 80 +12  1014.3  -0.4  754  289           
00 17.08.17 240 (ЮЗ) 20000 м    10/10 600 м кучево-дожд. 
[Cb cap]
+13.4 +11.1 86 +16  1013.8  -0.4  753  287  +11.8        сухая 
03 17.08.17 270 (З) 20000 м    10/10 600 м кучево-дожд. 
[Cb cap]
+13.4 +10.7 84 +16  1013.9  0.1  753  287           
06 17.08.17 260 (З) 20000 м    10/10 600 м кучево-дожд. 
[Cb cap]
+14.1 +11.3 83 +18  1013.5  -0.4  753  286           
09 17.08.17 040 (СВ) 20000 м  {ливн. осадки}  10/10 600 м кучево-дожд. 
[Cb cap]
+12.3 +11.9 97 +18  1013  -0.6  753  288           
12 17.08.17 260 (З) 20000 м  {ливн. осадки}  10/10 600 м кучево-дожд. 
[Cb cap]
+12.3 +11 92 +15  1013.3  0.3  753  288    +14.6     
15 17.08.17 260 (З) 20000 м    3/0 средняя 
[Ac trans]
+11.7 +11.1 96 +15  1012.3  -1  752  288           
18 17.08.17 320 (СЗ) 20000 м    3/3 600 м кучево-дожд. 
[Cb cap]
+7.9 +7.3 96 +9  1011.6  -0.7  752  293           
21 17.08.17 330 (СЗ) 0200 м  туман  ?/?  
[]
+6.7 +6.7 100 +8  1011.6  -0.2  751  294           
00 18.08.17 290 (З) 2000 м  дымка{туман}  10/0 средняя 
[As op]
+9.1 +8.5 96 +10  1011.7  0.3  752  292  +5.7        влажная 
03 18.08.17 120 (ЮВ) 20000 м    10/10 300 м 
[St]
+11.4 +10.2 92 +14  1011.2  -0.5  751  289           
06 18.08.17 110 (В) 20000 м    10/9 300 м верхняя 
[St|Ci fib]
+12.9 +10.8 87 +16  1010.7  -0.4  751  287           
09 18.08.17 030 (СВ) 20000 м    10/8 600 м средняя, верхняя 
[St|Ac trans|Ci fib]
+12.6 +10.9 89 +16  1010.3  -0.4  751  287           
12 18.08.17 010 (С) 20000 м  дым  10/0 средняя, верхняя 
[Ac trans|Cs]
+11 +10.6 97 +14  1010.2  -0.2  750  289    +13.2       
15 18.08.17 030 (СВ) 20000 м  дым  10/0 средняя, верхняя 
[Ac trans|Cs]
+10.7 +10.7 100 +13  1009.6  -0.6  750  289           
18 18.08.17 060 (СВ) 20000 м  дым  10/3 600 м средняя, верхняя 
[Sc|Ac trans|Cs]
+10.5 +10.1 97 +12  1008.7  -0.9  749  289           
Время (UTC), дата Ветер
(°,м/с) 
Видим.   Явления Облачность Т
(°С)
Тd
(°С)
f(%) Тe
(°С)
Pmin
(гПа)
dP
(гПа)
Po
(мм)
O2
(г/м3)
Тmin Tmax R s Состояние
почвы

Для получения пояснительной информации подведите курсор к названию столбца.

ПОГОДА Батамай - архив

Всё, что Вы хотите узнать о погоде Батамай - удобно и подробно!

Выберите нужную дату (начиная с 1 января 2015* года) и нажмите кнопку "Найти".
Будут отображены архивные сводки погоды по пункту Батамай, начиная с указанной даты.


Отображать данные в формате CSV (для использования в таблицах Excel)


Внимание! Наш архив погоды предназначен исключительно для личного некоммерческого использования в познавательных целях. Если Вам необходимы официальные справки о состоянии погоды (для производственных, юридических, коммерческих и т.п. целей), обращайтесь в органы Росгидромета.

*Примечание: данная дата относится к архиву по метеостанциям СССР (Россия, СНГ, Балтия).
Архив по метеостанциям Зарубежной Европы и Азии (кроме Китая) хранится 10 дней, по другим регионам земного шара (Китай, Африка, Америка, Австралия, Океания) - 1 день.

Батамай - район местоположения метеостанции


Название, широта, долгота, высота метеостанции:
Батамай 63.5°ш. 129.5°д. 79 м над ур. моря [Российская Федерация]

Дополнительная информация

В oтличие oт бoльшинства пoгoдных сайтoв мы публикуем пoдрoбную метеoинфoрмацию в детальнoм прoфессиoнальнoм фoрмате.

Характеристики температуры и влажнoсти вoздуха измеряются на высoте 2 м в тени вдали oт зданий и деревьев.
Скoрoсть ветра измеряется на высoте 10 м (на урoвне рoста челoвека скoрoсть ветра ниже в 1.5-2 раза). Если метеoстанция нахoдится в гoрoде или в лесу, тo скoрoсть ветра занижена на 2-4 м/с пo сравнению с oткрытым местoм. Скoрoсть ветра над акватoриями крупных рек и oзёр, а также на вершинах хoлмoв на 2-5 м/с выше, чем в oбычных услoвиях.
Атмoсфернoе давление в разных тoчках местнoсти мoжет значительнo oтличаться oт давления на метеoстанции, в зависимoсти oт услoвий рельефа (при пoдъёме на 10 м давление пoнижается примернo на 1 мм рт.ст.).